EW7321 Gulfport FL US current weather conditions

sailwx.info

Wind from 051 at 0 knots gusting 5

Air temperature 26.1° C
Dewpoint 22.0° C

Last reported at 2019-Jul-21 23:10 UTC.
Time now 2019-Jul-21 23:33 UTC

Location: N 27°45' W 082°42'.
View on Google Maps.

See reports from other nearby stations

  
Tides and Currents Weather Stations Pressure Air Temp Water Temp Dewpoint Dewpoint Depression Visibility Wind Speed Wind Dir Waves Ship Positions
date/time (UTC)wind fromknots sea level pressurealtimeterstation pressurevisibilityair tempwater tempwave heightnotes
2019-Jul-21 23:10 051 0 gusting 5 26.1
2019-Jul-21 23:05 080 0 gusting 4 26.1
2019-Jul-21 23:00 153 1 gusting 5 26.1
2019-Jul-21 22:55 103 1 gusting 5 26.7
2019-Jul-21 22:50 059 1 gusting 5 26.7
2019-Jul-21 22:44 100 1 gusting 5 26.7
2019-Jul-21 22:40 037 1 gusting 5 26.7
2019-Jul-21 22:35 072 1 gusting 6 26.7
2019-Jul-21 22:29 068 0 gusting 6 26.7
2019-Jul-21 22:24 093 0 gusting 2 26.7
2019-Jul-21 22:19 056 0 gusting 4 26.7
2019-Jul-21 22:14 113 0 gusting 4 26.7
2019-Jul-21 22:09 059 26.1
2019-Jul-21 22:04 314 26.1
2019-Jul-21 21:59 152 0 gusting 4 26.1
2019-Jul-21 21:54 042 0 gusting 4 26.1
2019-Jul-21 21:49 086 1 gusting 4 26.1
2019-Jul-21 21:44 100 2 gusting 6 26.1
2019-Jul-21 21:39 148 1 gusting 6 26.1
2019-Jul-21 21:34 083 1 gusting 6 26.1
2019-Jul-21 21:29 131 1 gusting 7 26.1
2019-Jul-21 21:24 037 1 gusting 7 26.1
2019-Jul-21 21:19 138 1 gusting 8 26.7
2019-Jul-21 21:14 216 2 gusting 9 26.7
2019-Jul-21 21:09 131 3 gusting 13 27.2
2019-Jul-21 21:04 146 4 gusting 13 27.8
2019-Jul-21 20:59 081 3 gusting 13 28.3
2019-Jul-21 20:54 127 1 gusting 13 30.6
2019-Jul-21 20:49 200 30.6
2019-Jul-21 20:44 347 30.6
2019-Jul-21 20:39 347 31.1
2019-Jul-21 20:34 347 31.1
2019-Jul-21 20:29 004 31.7
2019-Jul-21 20:24 124 31.7
2019-Jul-21 20:19 316 32.2
2019-Jul-21 20:14 319 32.8
2019-Jul-21 20:09 263 32.8
2019-Jul-21 20:04 326 32.8
2019-Jul-21 19:59 261 32.8
2019-Jul-21 19:54 339 32.8
2019-Jul-21 19:49 253 32.8
2019-Jul-21 19:44 254 32.8
2019-Jul-21 19:39 316 32.8
2019-Jul-21 19:34 339 32.8
2019-Jul-21 19:29 301 32.8
2019-Jul-21 19:24 300 32.2
2019-Jul-21 19:19 306 32.2
2019-Jul-21 19:14 297 31.7
2019-Jul-21 19:09 269 31.7
2019-Jul-21 19:04 331 31.7
2019-Jul-21 18:59 318 0 gusting 5 31.7
2019-Jul-21 18:54 335 1 gusting 6 31.7
2019-Jul-21 18:49 322 0 gusting 6 32.2
2019-Jul-21 18:44 327 32.8
2019-Jul-21 18:39 331 32.8
2019-Jul-21 18:34 295 32.8
2019-Jul-21 18:29 310 33.3
2019-Jul-21 18:24 288 33.3
2019-Jul-21 18:19 050 33.3
2019-Jul-21 18:14 320 0 gusting 4 32.8
2019-Jul-21 18:09 056 0 gusting 5 32.8
2019-Jul-21 18:04 181 0 gusting 5 33.3
2019-Jul-21 17:59 271 33.3
2019-Jul-21 17:54 328 0 gusting 4 32.8
2019-Jul-21 17:49 258 0 gusting 4 32.8
2019-Jul-21 17:44 130 32.8
2019-Jul-21 17:39 293 0 gusting 5 32.8
2019-Jul-21 17:34 025 1 gusting 6 32.8
2019-Jul-21 17:29 201 1 gusting 6 33.3
2019-Jul-21 17:24 213 0 gusting 4 33.3
2019-Jul-21 17:19 127 0 gusting 4 33.3
2019-Jul-21 17:14 226 0 gusting 4 33.3
2019-Jul-21 17:09 159 0 gusting 6 32.8
2019-Jul-21 17:04 200 0 gusting 6 32.8
2019-Jul-21 16:59 224 0 gusting 5 32.8
2019-Jul-21 16:54 129 1 gusting 5 32.2
2019-Jul-21 16:49 129 1 gusting 5 32.2
2019-Jul-21 16:44 160 1 gusting 5 32.2
2019-Jul-21 16:39 162 1 gusting 6 32.2
2019-Jul-21 16:34 147 2 gusting 6 31.7
2019-Jul-21 16:29 181 2 gusting 5 31.1
2019-Jul-21 16:24 147 2 gusting 5 31.1
2019-Jul-21 16:19 100 1 gusting 5 31.1
2019-Jul-21 16:14 146 0 gusting 4 31.1
2019-Jul-21 16:09 198 0 gusting 5 31.1
2019-Jul-21 16:04 155 0 gusting 5 31.7
2019-Jul-21 15:59 070 1 gusting 4 31.7
2019-Jul-21 15:54 153 1 gusting 6 31.7
2019-Jul-21 15:49 275 1 gusting 6 31.7
2019-Jul-21 15:44 121 1 gusting 6 31.7
2019-Jul-21 15:39 214 1 gusting 6 31.1
2019-Jul-21 15:34 061 1 gusting 4 31.1
2019-Jul-21 15:29 207 2 gusting 6 31.1
2019-Jul-21 15:24 191 2 gusting 6 30.6
2019-Jul-21 15:19 108 0 gusting 4 30.6
2019-Jul-21 15:14 095 1 gusting 6 30.6
2019-Jul-21 15:09 207 1 gusting 6 30.6
2019-Jul-21 15:04 108 1 gusting 5 30.6
2019-Jul-21 14:59 145 1 gusting 6 30.6
2019-Jul-21 14:54 110 1 gusting 6 30.0
2019-Jul-21 14:49 134 1 gusting 5 30.0
2019-Jul-21 14:44 150 1 gusting 6 30.6
2019-Jul-21 14:39 172 1 gusting 6 30.0
2019-Jul-21 14:34 140 0 gusting 4 30.0
2019-Jul-21 14:29 097 1 gusting 4 30.0
2019-Jul-21 14:24 086 1 gusting 4 29.4
2019-Jul-21 14:19 129 0 gusting 4 29.4
2019-Jul-21 14:14 121 0 gusting 4 29.4
2019-Jul-21 14:09 123 1 gusting 4 29.4
2019-Jul-21 14:04 051 1 gusting 6 29.4
2019-Jul-21 13:59 112 1 gusting 6 28.9
2019-Jul-21 13:54 107 1 gusting 5 28.9
2019-Jul-21 13:49 082 1 gusting 5 28.9
2019-Jul-21 13:44 147 1 gusting 4 28.3
2019-Jul-21 13:39 065 1 gusting 5 28.3
2019-Jul-21 13:34 095 0 gusting 5 28.3
2019-Jul-21 13:29 092 0 gusting 4 27.8
2019-Jul-21 13:24 222 0 gusting 3 27.8
2019-Jul-21 13:19 064 1 gusting 5 27.2
2019-Jul-21 13:14 065 0 gusting 5 27.2
2019-Jul-21 13:09 086 27.2
2019-Jul-21 13:04 060 26.7
2019-Jul-21 12:59 063 0 gusting 3 26.7
2019-Jul-21 12:54 060 0 gusting 3 26.7
2019-Jul-21 12:49 103 0 gusting 4 26.1
2019-Jul-21 12:44 043 0 gusting 4 26.1
2019-Jul-21 12:39 039 0 gusting 5 26.1
2019-Jul-21 12:34 171 0 gusting 5 26.1
2019-Jul-21 12:29 094 26.1
2019-Jul-21 12:24 050 26.1
2019-Jul-21 12:19 085 25.6
2019-Jul-21 12:14 079 25.6
2019-Jul-21 12:09 091 25.6
2019-Jul-21 12:03 080 25.6
2019-Jul-21 11:58 077 25.6
2019-Jul-21 11:53 072 25.0
2019-Jul-21 11:48 072 25.0
2019-Jul-21 11:43 072 25.0
2019-Jul-21 11:38 072 24.4
2019-Jul-21 11:33 072 23.9
2019-Jul-21 11:28 072 23.9
2019-Jul-21 11:23 072 23.9
2019-Jul-21 11:18 072 23.9
2019-Jul-21 11:13 072 23.9
2019-Jul-21 11:08 072 23.9
2019-Jul-21 11:03 072 23.9
2019-Jul-21 10:58 072 23.9
2019-Jul-21 10:53 072 23.9
2019-Jul-21 10:48 072 23.9
2019-Jul-21 10:43 072 23.3
2019-Jul-21 10:38 072 23.3
2019-Jul-21 10:33 072 23.3
2019-Jul-21 10:28 072 23.9
2019-Jul-21 10:23 072 23.9
2019-Jul-21 10:18 072 23.3
2019-Jul-21 10:13 072 23.3
2019-Jul-21 10:08 072 23.9
2019-Jul-21 10:03 072 23.9
2019-Jul-21 09:58 072 23.9
2019-Jul-21 09:53 072 23.9
2019-Jul-21 09:48 072 23.9
2019-Jul-21 09:43 072 23.9
2019-Jul-21 09:38 072 23.9
2019-Jul-21 09:32 072 23.9
2019-Jul-21 09:27 072 23.9
2019-Jul-21 09:22 068 23.9
2019-Jul-21 09:17 068 23.9
2019-Jul-21 09:12 068 23.9
2019-Jul-21 09:07 068 23.9
2019-Jul-21 09:02 072 23.9
2019-Jul-21 08:57 076 23.9
2019-Jul-21 08:52 076 23.3
2019-Jul-21 08:46 077 23.3
2019-Jul-21 08:41 078 23.3
2019-Jul-21 08:36 079 23.3
2019-Jul-21 08:31 046 23.3
2019-Jul-21 08:26 046 23.3
2019-Jul-21 08:21 051 23.3
2019-Jul-21 08:16 030 23.3
2019-Jul-21 08:11 030 23.3
2019-Jul-21 08:06 030 23.3
2019-Jul-21 08:01 353 23.3
2019-Jul-21 07:56 343 23.3
2019-Jul-21 07:51 344 23.3
2019-Jul-21 07:46 344 23.3
2019-Jul-21 07:41 343 23.3
2019-Jul-21 07:36 343 23.3
2019-Jul-21 07:31 343 23.3
2019-Jul-21 07:26 343 23.3
2019-Jul-21 07:21 343 23.3
2019-Jul-21 07:16 343 23.3
2019-Jul-21 07:11 343 23.3
2019-Jul-21 07:06 343 23.3
2019-Jul-21 07:00 343 23.3
2019-Jul-21 06:55 343 23.3
2019-Jul-21 06:50 343 23.3
2019-Jul-21 06:45 343 23.3
2019-Jul-21 06:40 343 23.3
2019-Jul-21 06:35 343 23.3
2019-Jul-21 06:30 343 23.3
2019-Jul-21 06:25 343 23.3
2019-Jul-21 06:20 343 23.3
2019-Jul-21 06:15 343 23.3
2019-Jul-21 06:10 343 23.3
2019-Jul-21 06:05 343 23.3
2019-Jul-21 06:00 343 23.3
2019-Jul-21 05:55 343 23.3
2019-Jul-21 05:45 343 23.3
2019-Jul-21 05:40 343 23.3
2019-Jul-21 05:35 343 23.3
2019-Jul-21 05:30 343 23.9
2019-Jul-21 05:25 343 23.9
2019-Jul-21 05:19 343 23.9
2019-Jul-21 05:14 343 23.9
2019-Jul-21 05:09 343 23.9
2019-Jul-21 05:04 343 23.9
2019-Jul-21 04:59 343 23.9
2019-Jul-21 04:54 343 24.4
2019-Jul-21 04:49 347 24.4
2019-Jul-21 04:44 322 24.4
2019-Jul-21 04:39 148 24.4
2019-Jul-21 04:34 148 23.9
2019-Jul-21 04:29 148 23.9
2019-Jul-21 04:24 148 23.9
2019-Jul-21 04:19 148 23.9
2019-Jul-21 04:14 148 23.9
2019-Jul-21 04:09 148 23.9
2019-Jul-21 04:04 148 23.9
2019-Jul-21 03:59 148 23.9
2019-Jul-21 03:54 148 23.9
2019-Jul-21 03:49 148 23.9
2019-Jul-21 03:44 148 23.9
2019-Jul-21 03:39 148 23.9
2019-Jul-21 03:34 148 23.9
2019-Jul-21 03:29 148 23.9
2019-Jul-21 03:24 148 23.9
2019-Jul-21 03:19 148 23.9
2019-Jul-21 03:14 148 23.9
2019-Jul-21 03:09 148 23.9
2019-Jul-21 03:04 148 23.9
2019-Jul-21 02:59 148 23.9
2019-Jul-21 02:54 148 23.9
2019-Jul-21 02:49 134 23.9
2019-Jul-21 02:44 085 23.9
2019-Jul-21 02:39 340 23.9
2019-Jul-21 02:34 340 23.9
2019-Jul-21 02:29 340 23.9
2019-Jul-21 02:24 340 23.9
2019-Jul-21 02:19 340 23.9
2019-Jul-21 02:14 340 23.9
2019-Jul-21 02:09 065 23.9
2019-Jul-21 02:04 065 23.9
2019-Jul-21 01:59 073 23.9
2019-Jul-21 01:54 037 23.9
2019-Jul-21 01:49 026 23.9
2019-Jul-21 01:44 026 23.9
2019-Jul-21 01:39 027 23.9
2019-Jul-21 01:34 027 23.3
2019-Jul-21 01:29 026 23.3
2019-Jul-21 01:24 040 23.3
2019-Jul-21 01:19 040 23.3
2019-Jul-21 01:14 040 23.3
2019-Jul-21 01:09 040 23.3
2019-Jul-21 01:04 040 22.8
2019-Jul-21 00:59 028 22.8
2019-Jul-21 00:54 325 22.8
2019-Jul-21 00:49 325 22.8
2019-Jul-21 00:44 325 22.8
2019-Jul-21 00:39 325 22.2
2019-Jul-21 00:34 325 22.2
2019-Jul-21 00:29 353 0 gusting 4 22.2
2019-Jul-21 00:24 319 1 gusting 4 22.2
2019-Jul-21 00:19 315 0 gusting 5 22.2
2019-Jul-21 00:14 304 0 gusting 5 22.2
2019-Jul-21 00:09 314 22.2
2019-Jul-21 00:04 314 0 gusting 2 22.2
2019-Jul-20 23:59 318 0 gusting 2 22.2
2019-Jul-20 23:54 327 22.2
2019-Jul-20 23:49 325 22.2
2019-Jul-20 23:44 333 22.2
2019-Jul-20 23:39 333 21.7
2019-Jul-20 23:34 334 21.7
2019-Jul-20 23:29 333 21.7
2019-Jul-20 23:24 333 21.7
2019-Jul-20 23:19 333 21.7
2019-Jul-20 23:14 338 21.7
2019-Jul-20 23:09 328 21.7
2019-Jul-20 23:04 327 21.7
2019-Jul-20 22:54 124 21.7
2019-Jul-20 22:49 242 21.7
2019-Jul-20 22:44 242 2 gusting 7 21.7
2019-Jul-20 22:39 158 3 gusting 7 21.7
2019-Jul-20 22:34 164 3 gusting 8 21.7
2019-Jul-20 22:29 211 3 gusting 8 21.7
2019-Jul-20 22:24 117 3 gusting 12 21.7
2019-Jul-20 22:19 255 5 gusting 13 22.2
2019-Jul-20 22:14 101 5 gusting 16 23.3
2019-Jul-20 22:09 124 6 gusting 18 24.4
2019-Jul-20 22:04 089 6 gusting 18 26.7
2019-Jul-20 21:59 134 3 gusting 15 29.4
2019-Jul-20 21:54 053 31.7
2019-Jul-20 21:49 305 31.7
2019-Jul-20 21:44 248 32.2
2019-Jul-20 21:39 318 32.8
2019-Jul-20 21:33 253 32.8
2019-Jul-20 21:28 245 33.3
2019-Jul-20 21:23 268 33.3
2019-Jul-20 21:18 299 33.3
2019-Jul-20 21:13 326 33.9
2019-Jul-20 21:08 128 34.4
2019-Jul-20 21:03 176 34.4
2019-Jul-20 20:58 029 34.4
2019-Jul-20 20:53 131 33.9
2019-Jul-20 20:48 026 33.9
2019-Jul-20 20:43 249 33.3
2019-Jul-20 20:38 302 33.9
2019-Jul-20 20:33 309 0 gusting 4 33.9
2019-Jul-20 20:28 122 0 gusting 5 33.9
2019-Jul-20 20:23 140 0 gusting 5 33.9
2019-Jul-20 20:18 145 33.9
2019-Jul-20 20:13 295 33.9
2019-Jul-20 20:08 221 33.9
2019-Jul-20 20:03 304 33.9
2019-Jul-20 19:58 234 33.9
2019-Jul-20 19:53 251 33.9
2019-Jul-20 19:48 242 34.4
2019-Jul-20 19:43 247 0 gusting 5 34.4
2019-Jul-20 19:38 158 0 gusting 5 34.4
2019-Jul-20 19:33 145 34.4
2019-Jul-20 19:28 123 34.4
2019-Jul-20 19:23 118 34.4
2019-Jul-20 19:18 314 33.9
2019-Jul-20 19:13 262 33.9
2019-Jul-20 19:08 118 0 gusting 4 33.9
2019-Jul-20 19:03 129 1 gusting 5 33.9
2019-Jul-20 18:58 117 1 gusting 6 33.9
2019-Jul-20 18:53 133 0 gusting 6 34.4
2019-Jul-20 18:48 205 0 gusting 6 33.9
2019-Jul-20 18:43 281 0 gusting 6 33.9
2019-Jul-20 18:38 197 0 gusting 4 34.4
2019-Jul-20 18:33 127 1 gusting 4 33.9
2019-Jul-20 18:28 139 0 gusting 5 34.4
2019-Jul-20 18:23 141 0 gusting 5 34.4
2019-Jul-20 18:18 160 0 gusting 4 34.4
2019-Jul-20 18:13 204 34.4
2019-Jul-20 18:08 151 0 gusting 3 34.4
2019-Jul-20 18:03 115 33.9
2019-Jul-20 17:58 058 0 gusting 5 33.9
2019-Jul-20 17:53 134 0 gusting 5 33.3
2019-Jul-20 17:48 278 0 gusting 4 33.3
2019-Jul-20 17:43 217 0 gusting 5 33.3
2019-Jul-20 17:38 133 0 gusting 5 33.3
2019-Jul-20 17:33 143 0 gusting 3 33.3
2019-Jul-20 17:28 215 0 gusting 4 33.3
2019-Jul-20 17:23 216 1 gusting 6 33.3
2019-Jul-20 17:18 126 1 gusting 6 33.3
2019-Jul-20 17:13 146 1 gusting 6 33.3
2019-Jul-20 17:08 226 1 gusting 6 33.3
2019-Jul-20 17:03 269 1 gusting 6 33.3
2019-Jul-20 16:58 131 1 gusting 6 32.8
2019-Jul-20 16:53 108 1 gusting 6 33.3
2019-Jul-20 16:48 195 1 gusting 6 32.8
2019-Jul-20 16:43 257 1 gusting 6 32.8
2019-Jul-20 16:38 155 1 gusting 5 32.8
2019-Jul-20 16:33 162 1 gusting 3 32.8
2019-Jul-20 16:28 256 1 gusting 6 32.8
2019-Jul-20 16:22 165 2 gusting 6 32.8
2019-Jul-20 16:17 127 2 gusting 6 32.2
2019-Jul-20 16:12 094 2 gusting 6 32.2
2019-Jul-20 16:07 130 2 gusting 7 32.2
2019-Jul-20 16:02 151 3 gusting 7 32.2
2019-Jul-20 15:57 158 2 gusting 6 32.2
2019-Jul-20 15:52 094 2 gusting 6 32.2
2019-Jul-20 15:47 165 1 gusting 6 32.2
2019-Jul-20 15:42 211 1 gusting 6 32.2
2019-Jul-20 15:37 091 1 gusting 5 32.2
2019-Jul-20 15:32 195 1 gusting 6 31.7
2019-Jul-20 15:27 190 1 gusting 6 31.7
2019-Jul-20 15:22 158 2 gusting 6 31.7
2019-Jul-20 15:16 274 2 gusting 6 31.7
2019-Jul-20 15:11 056 2 gusting 6 31.7
2019-Jul-20 15:07 146 2 gusting 6 31.7
2019-Jul-20 15:01 190 1 gusting 6 31.1
2019-Jul-20 14:56 148 2 gusting 6 31.1
2019-Jul-20 14:51 101 2 gusting 6 31.1
2019-Jul-20 14:46 134 2 gusting 6 31.1
2019-Jul-20 14:41 165 2 gusting 5 31.1
2019-Jul-20 14:36 143 2 gusting 5 30.6
2019-Jul-20 14:31 150 2 gusting 5 30.6
2019-Jul-20 14:26 021 2 gusting 6 30.6
2019-Jul-20 14:21 151 2 gusting 6 30.6
2019-Jul-20 14:16 060 1 gusting 6 30.6
2019-Jul-20 14:11 087 1 gusting 5 30.6
2019-Jul-20 14:06 165 1 gusting 5 30.6
2019-Jul-20 14:01 150 1 gusting 5 30.6
2019-Jul-20 13:56 071 1 gusting 5 30.0
2019-Jul-20 13:51 124 2 gusting 6 30.0
2019-Jul-20 13:46 103 2 gusting 6 30.0
2019-Jul-20 13:41 179 1 gusting 6 30.0
2019-Jul-20 13:36 165 2 gusting 6 30.0
2019-Jul-20 13:31 130 2 gusting 5 29.4
2019-Jul-20 13:26 130 2 gusting 6 29.4
2019-Jul-20 13:21 042 2 gusting 6 29.4
2019-Jul-20 13:16 124 1 gusting 6 29.4
2019-Jul-20 13:11 100 1 gusting 6 29.4
2019-Jul-20 13:06 150 2 gusting 6 28.9
2019-Jul-20 13:01 110 2 gusting 6 28.9
2019-Jul-20 12:56 155 1 gusting 5 28.9
2019-Jul-20 12:51 050 1 gusting 6 28.3
2019-Jul-20 12:46 049 2 gusting 6 28.3
2019-Jul-20 12:41 154 1 gusting 6 28.3
2019-Jul-20 12:36 097 1 gusting 5 28.3
2019-Jul-20 12:31 129 1 gusting 5 28.3
2019-Jul-20 12:26 097 1 gusting 5 28.3
2019-Jul-20 12:21 109 0 gusting 5 27.8
2019-Jul-20 12:16 061 0 gusting 4 27.8
2019-Jul-20 12:11 044 0 gusting 4 27.8
2019-Jul-20 12:06 133 0 gusting 4 27.2
2019-Jul-20 12:00 098 0 gusting 3 27.2
2019-Jul-20 11:55 055 0 gusting 3 27.2
2019-Jul-20 11:50 073 0 gusting 3 26.7
2019-Jul-20 11:45 060 0 gusting 4 26.7
2019-Jul-20 11:40 126 0 gusting 4 26.1
2019-Jul-20 11:35 082 25.6
2019-Jul-20 11:30 068 25.6
2019-Jul-20 11:25 068 25.6
2019-Jul-20 11:20 075 25.6
2019-Jul-20 11:15 059 25.0
2019-Jul-20 11:10 059 25.0
2019-Jul-20 11:04 082 25.0
2019-Jul-20 10:59 103 25.0
2019-Jul-20 10:54 103 25.0
2019-Jul-20 10:49 103 25.0
2019-Jul-20 10:44 103 25.0
2019-Jul-20 10:39 111 25.0
2019-Jul-20 10:34 115 25.0
2019-Jul-20 10:29 115 25.0
2019-Jul-20 10:24 115 25.0
2019-Jul-20 10:19 073 25.0
2019-Jul-20 10:14 073 25.0
2019-Jul-20 10:09 049 25.0
2019-Jul-20 10:04 110 25.0
2019-Jul-20 09:59 333 25.0
2019-Jul-20 09:54 333 25.0
2019-Jul-20 09:49 333 25.0
2019-Jul-20 09:44 333 25.0
2019-Jul-20 09:39 333 25.0
2019-Jul-20 09:34 333 24.4
2019-Jul-20 09:29 333 24.4
2019-Jul-20 09:24 333 24.4
2019-Jul-20 09:19 333 24.4
2019-Jul-20 09:14 333 24.4
2019-Jul-20 09:09 333 24.4
2019-Jul-20 09:04 333 24.4
2019-Jul-20 08:59 333 24.4
2019-Jul-20 08:54 333 24.4
2019-Jul-20 08:49 333 24.4
2019-Jul-20 08:44 333 24.4
2019-Jul-20 08:39 333 24.4
2019-Jul-20 08:34 333 24.4
2019-Jul-20 08:29 333 24.4
2019-Jul-20 08:24 333 24.4
2019-Jul-20 08:19 333 24.4
2019-Jul-20 08:14 333 24.4
2019-Jul-20 08:09 333 24.4
2019-Jul-20 08:04 333 24.4
2019-Jul-20 07:59 333 24.4
2019-Jul-20 07:54 316 24.4
2019-Jul-20 07:49 316 24.4
2019-Jul-20 07:44 316 24.4
2019-Jul-20 07:39 316 24.4
2019-Jul-20 07:34 316 24.4
2019-Jul-20 07:29 316 24.4
2019-Jul-20 07:24 316 24.4
2019-Jul-20 07:19 316 24.4
2019-Jul-20 07:14 316 24.4
2019-Jul-20 07:09 316 24.4
2019-Jul-20 07:04 316 24.4
2019-Jul-20 06:59 316 24.4
2019-Jul-20 06:54 316 24.4
2019-Jul-20 06:49 316 24.4
2019-Jul-20 06:44 316 24.4
2019-Jul-20 06:39 299 24.4
2019-Jul-20 06:34 300 24.4
2019-Jul-20 06:29 049 24.4
2019-Jul-20 06:24 061 24.4
2019-Jul-20 06:19 002 24.4
2019-Jul-20 06:14 003 24.4
2019-Jul-20 06:09 040 24.4
2019-Jul-20 06:04 041 24.4
2019-Jul-20 05:59 041 24.4
2019-Jul-20 05:54 041 24.4
2019-Jul-20 05:49 041 24.4
2019-Jul-20 05:44 041 24.4
2019-Jul-20 05:39 030 24.4
2019-Jul-20 05:34 030 24.4
2019-Jul-20 05:29 030 24.4
2019-Jul-20 05:24 030 24.4
2019-Jul-20 05:19 030 24.4
2019-Jul-20 05:14 030 24.4
2019-Jul-20 05:09 036 24.4
2019-Jul-20 05:04 312 24.4
2019-Jul-20 04:59 312 24.4
2019-Jul-20 04:54 313 24.4
2019-Jul-20 04:48 341 24.4
2019-Jul-20 04:43 341 24.4
2019-Jul-20 04:38 341 24.4
2019-Jul-20 04:33 341 24.4
2019-Jul-20 04:28 041 24.4
2019-Jul-20 04:24 042 24.4
2019-Jul-20 04:18 042 24.4
2019-Jul-20 04:13 335 24.4
2019-Jul-20 04:08 335 24.4
2019-Jul-20 04:03 335 24.4
2019-Jul-20 03:58 335 24.4
2019-Jul-20 03:53 062 24.4
2019-Jul-20 03:48 089 24.4
2019-Jul-20 03:43 027 24.4
2019-Jul-20 03:38 028 24.4
2019-Jul-20 03:33 028 24.4
2019-Jul-20 03:28 028 24.4
2019-Jul-20 03:24 028 24.4
2019-Jul-20 03:19 028 24.4
2019-Jul-20 03:13 028 24.4
2019-Jul-20 03:03 020 25.0
2019-Jul-20 02:58 020 25.6
2019-Jul-20 02:53 020 25.6
2019-Jul-20 02:48 020 25.6
2019-Jul-20 02:43 051 25.6
2019-Jul-20 02:38 051 25.6
2019-Jul-20 02:33 049 25.6
2019-Jul-20 02:28 049 25.6
2019-Jul-20 02:23 049 25.6
2019-Jul-20 02:18 049 25.6
2019-Jul-20 02:13 049 25.6
2019-Jul-20 02:08 316 25.6
2019-Jul-20 02:03 316 25.6
2019-Jul-20 01:58 333 0 gusting 5 25.6
2019-Jul-20 01:53 319 1 gusting 6 25.6
2019-Jul-20 01:48 305 0 gusting 6 25.6
2019-Jul-20 01:43 328 0 gusting 6 25.6
2019-Jul-20 01:38 318 0 gusting 6 25.6
2019-Jul-20 01:33 328 0 gusting 4 25.6
2019-Jul-20 01:28 337 0 gusting 5 25.6
2019-Jul-20 01:23 016 0 gusting 6 25.6
2019-Jul-20 01:18 005 0 gusting 6 25.6
2019-Jul-20 01:13 333 1 gusting 6 25.6
2019-Jul-20 01:08 354 0 gusting 6 25.6
2019-Jul-20 01:03 081 25.6
2019-Jul-20 00:58 102 25.6
2019-Jul-20 00:53 002 0 gusting 4 25.6
2019-Jul-20 00:48 084 0 gusting 4 25.6
2019-Jul-20 00:43 316 0 gusting 6 25.6
2019-Jul-20 00:38 117 0 gusting 6 25.6
2019-Jul-20 00:33 041 0 gusting 4 26.1
2019-Jul-20 00:28 108 1 gusting 7 26.1
2019-Jul-20 00:23 070 3 gusting 7 26.1
2019-Jul-20 00:18 153 4 gusting 9 26.7
2019-Jul-20 00:13 069 5 gusting 17 26.7
2019-Jul-20 00:08 182 4 gusting 17 27.2
2019-Jul-20 00:03 101 6 gusting 19 27.8
2019-Jul-19 23:58 110 5 gusting 19 28.9
2019-Jul-19 23:53 135 30.0
2019-Jul-19 23:48 323 30.0
2019-Jul-19 23:43 323 30.0
2019-Jul-19 23:38 323 30.0
2019-Jul-19 23:33 323 30.0
2019-Jul-19 23:28 323 30.0
2019-Jul-19 23:23 323 30.0
2019-Jul-19 23:18 323 30.0
2019-Jul-19 23:13 323 30.6
2019-Jul-19 23:08 323 30.6
2019-Jul-19 23:03 323 30.6